Visibility
15.0 15.0 15.0 15.0 15.0 15.0 6.5 2.4 2.6 1.7 4.8 15.0 12.2 8.1 11.1 15.0 15.0 15.0 15.0 15.0 15.0 15.0 15.0 15.0 15.0 15.0 15.0 15.0 15.0 15.0 15.0 15.0 15.0 15.0 15.0 15.0 15.0 15.0 15.0 15.0 15.0 15.0 15.0
4.0 7.5 10.0 4.4 15.0 1.9 2.1 1.3 5.5 15.0 15.0 3.7 15.0 9.5 15.0 15.0 15.0 15.0 14.8 15.0 15.0 15.0 15.0 15.0 15.0 15.0 15.0 15.0 15.0 15.0 15.0 15.0 15.0 15.0 15.0 15.0 15.0 15.0 15.0 15.0 15.0 15.0 15.0
3.5 9.4 1.7 0.2 1.7 3.0 0.2 0.8 12.8 15.0 13.4 4.4 15.0 7.4 15.0 15.0 15.0 15.0 15.0 15.0 15.0 15.0 15.0 15.0 15.0 15.0 15.0 15.0 15.0 15.0 15.0 15.0 15.0 15.0 15.0 15.0 15.0 15.0 15.0 15.0 15.0 15.0 15.0
15.0 1.8 0.1 0.1 0.1 0.1 1.2 2.6 15.0 15.0 8.8 15.0 15.0 15.0 15.0 15.0 15.0 15.0 15.0 15.0 15.0 15.0 15.0 15.0 15.0 15.0 15.0 15.0 15.0 15.0 15.0 15.0 15.0 15.0 15.0 15.0 15.0 15.0 15.0 15.0 15.0 15.0 15.0
0.4 0.1 0.1 0.4 2.8 13.0 14.8 14.9 15.0 15.0 15.0 15.0 15.0 15.0 15.0 15.0 15.0 15.0 15.0 15.0 15.0 15.0 15.0 15.0 15.0 15.0 15.0 15.0 15.0 15.0 15.0 15.0 15.0 15.0 15.0 15.0 15.0 15.0 15.0 15.0 15.0 10.3 15.0
0.5 0.1 10.4 15.0 15.0 8.2 4.1 14.4 15.0 15.0 15.0 15.0 15.0 15.0 15.0 15.0 15.0 15.0 15.0 15.0 15.0 15.0 15.0 15.0 15.0 15.0 15.0 15.0 15.0 15.0 15.0 15.0 15.0 15.0 15.0 15.0 15.0 15.0 15.0 14.5 14.8 9.4 1.7
6.2 12.6 13.4 15.0 15.0 15.0 15.0 15.0 15.0 15.0 15.0 15.0 15.0 15.0 15.0 15.0 15.0 15.0 15.0 15.0 15.0 15.0 15.0 15.0 15.0 15.0 15.0 15.0 15.0 15.0 15.0 15.0 15.0 15.0 15.0 15.0 15.0 15.0 15.0 12.1 14.3 1.8 2.6
15.0 15.0 15.0 15.0 15.0 15.0 15.0 15.0 15.0 15.0 15.0 15.0 15.0 15.0 15.0 15.0 15.0 15.0 8.5 15.0 15.0 15.0 15.0 15.0 15.0 15.0 15.0 15.0 15.0 15.0 15.0 15.0 15.0 15.0 15.0 15.0 15.0 15.0 15.0 15.0 8.1 14.2 1.3
15.0 15.0 15.0 15.0 15.0 15.0 15.0 15.0 15.0 15.0 15.0 15.0 15.0 15.0 15.0 15.0 15.0 15.0 15.0 15.0 15.0 15.0 15.0 15.0 15.0 15.0 15.0 15.0 15.0 15.0 15.0 15.0 15.0 15.0 15.0 15.0 15.0 15.0 15.0 8.7 0.6 0.2 0.1
15.0 15.0 15.0 15.0 15.0 15.0 15.0 15.0 15.0 15.0 15.0 15.0 15.0 15.0 15.0 15.0 15.0 15.0 15.0 15.0 15.0 15.0 15.0 15.0 15.0 15.0 15.0 15.0 15.0 15.0 15.0 15.0 15.0 15.0 15.0 15.0 15.0 15.0 15.0 15.0 15.0 0.3 0.2
15.0 15.0 15.0 15.0 15.0 15.0 15.0 15.0 15.0 15.0 15.0 15.0 15.0 15.0 15.0 15.0 15.0 15.0 15.0 15.0 15.0 15.0 15.0 15.0 15.0 15.0 15.0 15.0 15.0 15.0 15.0 15.0 15.0 15.0 15.0 15.0 15.0 15.0 15.0 13.3 15.0 7.2 0.4
15.0 15.0 15.0 15.0 15.0 15.0 15.0 15.0 15.0 15.0 15.0 15.0 15.0 15.0 15.0 15.0 15.0 15.0 15.0 15.0 15.0 15.0 15.0 15.0 15.0 15.0 15.0 15.0 15.0 15.0 15.0 15.0 15.0 11.7 5.2 5.4 11.8 15.0 15.0 15.0 10.3 15.0 14.3
15.0 15.0 15.0 15.0 15.0 15.0 15.0 15.0 15.0 15.0 15.0 15.0 15.0 15.0 15.0 15.0 15.0 15.0 15.0 15.0 15.0 15.0 15.0 15.0 15.0 15.0 15.0 15.0 15.0 15.0 15.0 15.0 15.0 5.0 9.1 13.8 8.1 15.0 15.0 15.0 0.1 14.8 6.8
15.0 15.0 15.0 15.0 15.0 15.0 15.0 15.0 15.0 15.0 15.0 15.0 15.0 15.0 15.0 15.0 15.0 15.0 15.0 15.0 15.0 15.0 15.0 15.0 15.0 15.0 15.0 15.0 15.0 15.0 15.0 15.0 7.7 5.4 0.4 6.4 15.0 3.2 0.5 13.2 1.0 0.1 0.1
15.0 15.0 15.0 15.0 15.0 15.0 15.0 15.0 15.0 15.0 15.0 15.0 15.0 15.0 15.0 7.6 15.0 15.0 15.0 15.0 15.0 15.0 15.0 14.2 15.0 14.8 15.0 15.0 15.0 15.0 15.0 15.0 12.6 14.9 2.9 0.9 7.4 0.3 0.6 5.2 0.1 0.1 0.1
15.0 15.0 15.0 15.0 15.0 15.0 15.0 15.0 15.0 15.0 15.0 15.0 15.0 15.0 15.0 15.0 15.0 15.0 15.0 15.0 15.0 15.0 15.0 7.2 6.2 15.0 15.0 15.0 15.0 15.0 15.0 15.0 10.7 6.1 15.0 1.9 0.1 0.2 0.2 0.1 0.0 0.1 1.7
15.0 15.0 15.0 15.0 15.0 15.0 15.0 15.0 15.0 15.0 15.0 15.0 15.0 15.0 15.0 15.0 15.0 15.0 15.0 15.0 15.0 15.0 14.7 13.8 9.9 4.2 5.0 15.0 15.0 15.0 15.0 15.0 11.9 2.7 11.7 0.5 0.1 0.5 0.1 0.1 0.4 4.0 2.1
15.0 15.0 15.0 15.0 13.0 13.6 15.0 15.0 14.6 3.4 9.1 15.0 15.0 15.0 15.0 15.0 15.0 15.0 15.0 15.0 15.0 15.0 15.0 9.8 15.0 4.8 4.2 15.0 15.0 15.0 14.5 14.0 11.0 7.6 7.6 2.4 0.1 0.1 0.4 0.1 0.2 3.7 3.4
15.0 15.0 15.0 8.7 7.6 7.7 2.9 1.2 11.4 15.0 15.0 15.0 15.0 15.0 15.0 15.0 15.0 15.0 15.0 11.7 8.5 15.0 13.3 14.0 10.2 10.8 2.7 6.3 4.8 5.4 4.5 4.6 14.8 1.6 11.9 1.4 1.1 0.1 0.2 0.4 0.1 0.2 0.5
2.8 1.1 0.7 0.7 0.7 1.6 2.7 4.2 12.2 15.0 15.0 15.0 15.0 15.0 15.0 15.0 15.0 15.0 15.0 3.8 5.1 3.9 4.8 14.8 6.7 2.9 9.1 8.5 4.1 3.1 2.2 15.0 10.6 13.0 7.4 1.3 5.2 0.1 0.1 0.1 0.2 0.1 0.1
0.3 0.1 0.1 0.2 0.2 0.6 1.9 5.3 14.9 13.5 14.9 15.0 14.9 12.4 15.0 15.0 15.0 14.6 0.7 4.8 4.1 4.1 4.1 3.4 4.1 4.1 5.2 5.2 4.2 0.6 14.8 15.0 1.6 10.0 1.0 2.3 4.9 0.1 0.1 0.1 0.1 0.9 0.4
0.1 0.1 0.2 0.8 3.7 3.2 3.6 14.8 15.0 15.0 15.0 15.0 15.0 15.0 15.0 11.6 3.8 2.6 3.4 4.1 4.1 4.1 4.1 4.1 4.1 4.2 4.1 2.4 15.0 14.0 2.6 0.8 0.7 1.4 2.5 14.8 4.2 0.6 0.1 0.1 0.1 0.9 0.9
0.4 1.1 5.1 4.4 8.0 14.6 15.0 10.4 15.0 15.0 15.0 15.0 14.6 15.0 15.0 3.9 3.5 2.1 2.7 3.9 4.1 4.1 4.1 12.7 3.9 1.9 11.1 15.0 15.0 1.9 0.2 1.2 5.0 11.5 1.7 0.7 0.5 0.9 0.2 0.2 0.2 1.5 0.2
12.9 14.5 15.0 15.0 15.0 15.0 14.9 4.9 15.0 7.9 0.8 1.6 4.1 4.0 2.6 4.3 4.1 1.6 1.0 4.1 4.1 6.4 15.0 2.3 7.3 15.0 15.0 2.7 12.7 14.7 15.0 15.0 2.9 0.3 0.2 2.1 13.4 15.0 0.3 0.2 0.2 0.2 0.1
15.0 15.0 15.0 15.0 14.2 4.2 1.4 1.1 3.2 4.1 4.2 4.1 2.7 3.9 12.1 5.6 12.0 12.1 15.0 5.4 15.0 2.1 6.2 15.0 15.0 15.0 15.0 15.0 15.0 15.0 14.4 2.7 1.1 6.4 1.0 0.5 0.5 1.7 0.4 0.2 0.1 0.2 0.2
12.7 14.7 14.1 5.5 0.5 1.8 3.6 3.4 4.1 9.2 4.2 3.9 7.9 11.7 2.9 3.9 7.0 14.1 15.0 9.4 2.5 15.0 15.0 15.0 15.0 15.0 15.0 11.5 10.1 7.7 7.2 3.8 1.0 0.7 0.3 0.2 0.4 1.2 0.3 0.2 0.1 0.1 0.2